GFSSW_sfc_dewp_135.txt.gz
Dewpoint
52 51 51 50 49 50 49 49 49 49 49 49 49 49 51 52 52 41 37 42 42 53 57 53 53 51 48 45 43 37 28 27 31 33 31 31 29 27 25 28 32 33 35 40 49
52 52 51 51 50 49 49 49 49 49 48 48 48 49 49 50 43 35 50 55 56 52 52 51 50 50 44 43 42 41 35 32 31 32 32 31 29 28 29 30 33 33 45 48 52
53 53 52 51 50 50 49 49 49 49 49 49 48 48 48 45 37 40 52 52 55 52 45 46 46 48 49 43 40 40 39 33 31 31 32 33 31 31 32 32 32 34 43 51 51
53 53 53 52 50 50 50 49 49 49 49 48 48 48 48 38 28 48 50 49 51 47 47 48 44 44 46 47 41 37 37 38 34 32 34 35 32 30 32 34 34 36 41 50 51
54 53 53 52 51 51 50 50 49 49 49 48 48 48 42 32 31 34 48 41 39 42 46 45 43 43 43 45 43 37 36 36 35 33 33 35 35 30 33 34 35 34 43 49 50
56 54 53 52 51 51 51 50 49 49 49 48 48 47 38 31 30 33 33 36 35 35 36 41 48 44 42 44 43 39 37 35 35 33 33 33 34 33 35 37 35 33 42 47 48
57 55 54 52 51 51 51 49 49 49 48 49 48 40 35 31 31 32 34 33 34 33 32 35 40 49 46 43 43 43 38 34 34 35 33 34 32 32 31 36 33 33 36 44 47
57 57 55 54 51 50 50 49 49 48 48 48 47 38 33 33 33 34 34 34 33 32 31 33 35 40 48 46 40 35 39 36 35 34 35 32 31 32 31 33 36 34 33 39 44
58 57 56 53 52 50 49 48 48 48 47 45 39 37 31 35 30 32 35 33 36 35 36 34 31 36 45 43 39 36 30 33 34 33 34 33 31 30 31 30 35 35 32 34 40
60 58 57 54 53 48 47 47 47 44 37 32 32 37 35 29 30 34 35 35 32 31 29 33 32 37 42 40 33 30 30 26 28 31 33 33 31 31 29 27 32 34 34 32 37
60 59 57 55 51 48 44 38 30 27 29 23 24 33 25 27 17 15 16 25 27 27 26 28 31 34 36 39 37 31 28 27 26 29 32 33 31 31 29 26 28 33 33 33 32
60 59 58 54 51 47 42 34 29 27 22 23 20 18 19 20 22 25 28 16 14 13 20 26 25 26 32 33 37 35 32 26 26 27 30 31 31 31 30 28 24 28 33 33 32
59 58 57 52 50 46 39 36 36 33 24 17 16 20 25 25 24 27 27 25 21 16 12 14 22 23 24 29 32 34 34 31 32 28 33 31 29 28 30 29 25 23 29 33 33
58 57 54 51 45 43 39 38 35 35 23 17 19 26 29 29 27 29 27 28 26 22 18 13 12 19 21 24 30 31 36 34 36 34 32 34 28 28 27 27 27 25 23 25 33
57 57 52 47 42 40 38 37 36 37 18 8 22 29 20 19 12 19 23 25 19 19 21 22 14 14 19 21 23 33 35 34 35 37 32 28 26 26 28 27 28 26 28 27 28
56 54 50 44 42 41 38 34 37 23 17 10 23 24 12 9 8 8 9 20 21 20 21 20 24 20 22 27 22 25 34 35 36 34 31 32 29 24 25 25 26 28 26 27 26
55 53 48 43 40 42 36 32 24 20 10 5 11 10 9 6 5 7 15 17 12 15 18 18 19 23 20 30 29 24 32 30 27 28 28 30 28 27 26 26 24 25 25 26 27
54 51 47 44 44 38 33 30 20 20 16 8 7 9 7 9 9 14 13 9 8 9 17 19 14 14 20 23 30 22 33 27 25 21 28 30 27 27 28 28 28 27 27 26 26
49 46 43 44 43 37 33 24 23 20 17 8 9 8 8 15 19 16 12 7 11 20 23 23 16 21 19 22 30 28 27 36 32 32 23 21 24 27 28 29 28 30 29 28 28
44 41 40 43 42 39 32 25 22 23 17 13 11 10 14 11 14 21 17 9 10 20 33 26 21 16 18 26 27 28 28 30 31 27 26 18 22 23 24 29 30 31 30 30 31
40 35 41 44 41 35 27 25 23 27 22 15 12 12 12 15 18 19 21 19 20 22 30 33 26 15 22 26 23 28 29 28 34 30 28 22 21 25 24 27 28 30 32 31 30
38 32 42 41 32 33 27 26 26 26 22 19 19 17 12 11 19 20 19 21 24 23 20 25 30 20 18 22 32 32 32 32 28 29 28 33 19 21 23 27 28 29 30 32 33
34 34 41 39 27 28 30 28 26 25 20 19 16 17 16 17 21 23 22 21 27 22 26 24 26 21 18 24 29 30 28 28 32 28 31 27 22 25 24 25 27 28 28 30 32
33 29 33 34 34 30 29 26 26 28 24 22 19 18 18 18 21 25 21 21 19 19 24 27 24 21 19 24 27 25 27 29 31 27 27 26 22 23 23 26 27 28 28 27 30
35 32 29 27 29 29 32 28 25 24 23 22 19 18 19 23 15 14 14 20 19 19 24 26 16 16 16 14 20 26 27 29 27 30 31 30 29 19 22 26 26 28 28 27 27
32 33 35 33 30 29 29 26 25 25 27 19 19 17 18 21 15 14 14 17 20 20 25 31 18 15 10 8 16 17 18 27 28 27 28 30 26 22 21 25 24 26 27 27 27
36 36 34 32 31 30 27 23 27 29 28 22 17 17 15 14 12 14 17 18 18 23 25 23 19 15 8 6 9 10 20 18 27 29 29 30 29 21 20 24 27 27 28 29 28

GFSSW_sfc_dewp_138.txt.gz
Dewpoint
55 55 54 54 53 52 51 51 51 50 50 50 50 50 49 49 49 39 36 39 40 51 55 44 46 54 50 47 47 46 38 30 28 27 29 34 32 32 29 23 25 28 33 44 50
55 55 55 54 54 53 52 51 51 51 50 50 50 49 49 49 41 35 41 53 55 57 51 43 44 49 49 46 45 42 37 34 32 29 29 33 34 31 29 23 26 29 44 49 51
56 56 55 55 55 54 52 52 51 51 51 50 50 49 49 46 34 34 52 50 51 52 51 45 45 46 48 47 42 41 39 39 36 34 34 32 33 33 28 29 30 30 46 50 50
58 58 57 55 55 54 53 52 52 51 51 50 49 49 48 41 26 46 51 50 48 46 46 42 41 41 44 44 47 39 39 40 40 40 39 33 33 34 32 31 34 33 46 50 50
59 59 59 57 55 55 54 52 52 52 51 50 49 48 43 35 32 32 45 40 35 38 42 42 42 42 38 40 43 44 43 38 38 39 38 37 33 35 35 32 33 35 42 50 49
60 59 59 59 57 56 54 53 52 52 50 50 49 48 40 33 34 31 31 32 35 33 33 36 42 43 44 38 39 42 44 42 37 36 36 35 33 33 35 34 34 35 42 49 50
61 60 60 59 59 57 54 53 52 51 50 50 48 42 37 35 34 33 33 31 31 31 30 33 33 37 43 45 38 38 38 40 40 36 35 35 33 32 34 34 33 36 38 48 49
61 61 61 60 59 57 55 53 52 50 49 49 48 40 34 35 33 32 31 31 33 33 31 30 31 34 36 46 44 39 37 37 38 41 36 35 32 34 34 33 32 34 33 39 48
61 61 60 60 59 58 55 54 50 49 49 48 40 36 32 37 31 31 30 32 32 34 34 32 32 32 37 42 39 40 35 35 35 37 37 33 33 35 34 32 31 30 34 34 41
60 60 59 59 60 58 54 51 47 47 43 36 34 32 34 31 30 26 27 33 32 30 29 29 33 32 36 39 29 31 34 34 32 33 35 33 32 34 33 32 31 29 34 35 36
60 59 59 58 59 57 50 44 35 33 33 26 28 31 31 32 22 17 17 16 18 28 24 26 29 28 30 37 37 34 32 29 29 31 30 31 31 33 34 32 30 29 29 35 34
58 59 57 58 58 52 44 36 36 32 29 26 23 22 23 21 16 18 26 21 12 11 14 16 21 25 26 27 33 35 34 33 34 33 28 27 27 31 33 33 31 29 28 32 35
57 57 57 57 52 46 40 40 41 35 30 27 21 17 18 23 19 24 27 25 20 18 14 11 16 17 21 21 21 27 33 33 34 33 31 27 26 29 33 33 32 31 27 31 34
56 56 56 52 45 43 40 43 38 37 27 23 15 22 26 28 26 27 27 27 26 22 21 20 18 13 11 12 20 22 24 29 30 32 30 32 29 32 33 32 32 31 28 26 34
55 55 56 48 43 39 41 41 40 38 20 15 21 27 26 23 15 18 23 20 22 20 16 17 17 19 20 10 13 19 24 25 28 30 30 30 32 34 32 31 29 31 29 26 27
55 55 48 44 43 42 42 39 40 27 19 10 25 26 23 13 10 10 8 22 17 13 18 18 18 17 16 19 21 19 17 23 27 29 28 29 32 31 29 29 29 29 30 26 24
55 52 45 43 39 42 39 37 27 22 17 17 10 16 10 8 7 8 10 12 14 15 15 14 11 12 18 17 19 22 27 22 21 24 25 31 29 30 29 28 28 28 28 28 26
53 47 45 42 43 40 39 32 22 25 22 25 13 10 8 10 10 12 13 12 12 8 12 12 10 11 13 14 23 20 25 24 15 17 18 21 26 29 34 33 27 29 29 29 27
46 44 43 43 42 40 36 26 27 24 29 20 13 11 10 13 19 16 15 11 13 21 17 18 15 16 17 16 24 25 21 27 23 24 27 29 31 32 29 29 29 27 28 28 27
43 40 40 43 43 40 33 27 27 30 30 21 15 12 14 12 16 21 18 12 12 17 30 24 17 16 16 19 24 25 23 24 27 19 18 21 26 26 28 28 27 27 26 29 27
41 34 41 43 42 35 27 28 24 29 30 24 16 16 12 17 19 17 19 19 20 22 25 31 25 18 21 21 24 28 22 25 33 26 17 19 21 24 28 28 28 27 28 28 29
39 30 41 42 32 32 28 29 27 28 32 27 21 18 15 12 19 19 18 20 20 23 20 24 22 18 20 20 27 30 32 32 26 20 27 26 24 26 29 27 29 28 30 30 31
33 34 41 39 27 28 30 28 26 27 27 27 18 17 15 14 16 21 20 20 25 25 24 22 20 16 11 24 23 27 27 27 30 29 22 23 22 32 34 32 31 30 31 32 31
34 28 32 33 34 31 29 27 26 27 29 29 25 19 18 17 17 21 21 20 20 22 23 26 23 18 9 14 23 22 22 25 29 24 24 25 24 28 34 32 30 28 29 31 31
35 32 31 26 28 30 31 30 27 26 29 32 28 25 20 17 18 19 18 17 19 23 24 22 14 17 16 13 14 17 20 24 25 26 24 26 26 24 30 32 36 29 28 29 29
32 32 35 32 31 30 29 28 27 29 27 24 25 20 18 19 20 18 17 17 18 21 23 24 16 17 14 10 5 10 12 18 26 26 25 27 28 30 32 37 32 27 26 27 28
38 37 35 32 32 30 27 25 27 30 30 24 26 23 18 18 18 19 18 19 19 21 19 21 18 15 9 7 9 9 17 19 15 23 27 26 29 33 33 36 37 28 27 27 27

GFSSW_sfc_dewp_144.txt.gz
Dewpoint
60 60 60 60 60 60 59 58 58 57 56 55 53 53 52 51 51 44 40 41 43 51 55 52 49 47 46 47 51 45 41 39 37 31 29 30 30 30 33 27 27 26 44 47 53
61 61 61 61 61 61 61 60 60 59 57 56 55 53 52 51 44 38 43 50 52 54 48 49 48 45 42 47 51 49 42 39 38 38 32 31 31 30 32 32 30 33 46 52 61
62 62 62 62 62 62 61 61 61 60 59 57 56 54 51 47 36 34 49 51 48 46 42 43 47 45 41 44 48 46 43 40 40 40 39 35 33 34 33 32 32 28 46 52 61
62 62 62 62 62 62 62 62 61 61 61 58 57 54 50 42 35 41 53 53 48 38 37 43 47 44 40 41 43 44 45 44 43 43 42 39 39 37 36 35 36 35 49 51 58
62 62 62 62 62 62 62 62 62 62 62 60 57 53 46 37 37 37 49 46 33 34 33 33 38 43 40 39 40 41 42 45 45 44 43 42 41 40 40 40 38 35 50 51 51
62 62 62 62 61 61 61 61 61 61 61 61 57 52 44 36 39 37 36 35 33 32 31 31 32 34 33 36 37 38 40 40 42 44 42 41 40 40 39 39 37 36 49 50 50
62 62 61 61 60 60 61 60 61 60 61 60 56 49 43 38 39 40 39 38 36 34 31 31 30 31 34 37 40 40 40 40 40 39 43 44 41 41 40 39 35 35 43 50 50
61 59 58 59 58 58 59 59 58 59 60 58 54 46 40 42 41 39 38 35 35 35 33 32 31 30 29 34 34 37 40 36 35 38 38 41 37 39 42 37 36 34 36 46 50
59 58 58 57 57 57 57 57 57 58 56 52 46 42 37 41 37 38 39 35 31 33 32 31 32 31 33 32 32 34 33 34 35 33 34 38 35 37 39 36 35 35 34 41 48
57 56 56 56 57 57 54 53 51 49 47 46 44 38 38 35 34 29 24 24 18 19 26 30 32 29 31 31 24 25 28 29 31 37 36 33 34 36 39 37 36 35 35 34 47
56 56 56 56 56 56 50 47 43 40 41 37 37 35 34 39 42 30 27 21 17 17 14 26 25 28 28 28 27 29 30 33 35 35 35 38 38 37 35 39 36 35 35 34 35
56 56 56 56 52 50 49 44 37 37 35 37 39 37 36 37 35 33 26 19 17 18 15 17 21 23 25 29 29 28 28 27 27 29 32 35 34 36 34 33 34 35 35 35 35
56 56 56 54 47 44 41 39 40 40 36 36 35 34 35 35 31 20 20 19 20 16 13 13 15 16 16 17 22 26 26 26 27 28 29 29 29 28 32 33 33 34 35 35 34
56 56 56 49 44 43 39 39 41 41 33 29 25 24 27 26 22 21 24 26 27 21 19 13 12 15 15 16 16 16 16 16 19 21 25 27 20 24 24 27 31 31 33 35 34
56 56 54 49 43 40 40 41 42 41 12 24 22 26 27 28 26 20 27 27 23 20 20 18 14 11 15 15 17 16 21 17 18 21 21 21 25 23 29 29 30 32 33 33 35
52 49 46 44 42 41 42 42 41 21 8 19 28 29 29 26 22 16 24 28 26 22 22 19 14 16 15 16 17 15 17 20 21 21 19 21 21 20 22 23 25 31 32 33 34
48 46 44 43 39 43 42 39 21 12 27 24 20 22 23 16 11 11 16 16 13 13 13 14 11 12 15 13 17 18 19 10 5 15 12 15 19 18 22 20 22 25 29 33 34
45 44 43 41 43 43 40 27 11 22 23 29 29 27 22 14 15 16 14 11 15 13 14 8 5 10 19 16 15 14 19 13 6 1 13 20 16 15 20 21 23 28 27 31 34
43 42 41 42 43 42 33 15 18 24 29 28 27 23 14 19 18 15 15 14 18 24 10 7 13 20 19 19 17 17 17 21 19 18 14 14 12 11 9 16 26 24 25 29 32
40 40 39 43 44 40 25 22 26 30 29 28 23 26 20 14 14 12 15 16 21 26 26 22 8 17 19 16 18 19 24 18 20 9 9 14 12 8 15 22 23 21 28 28 30
40 34 40 43 42 34 17 19 27 30 30 27 24 24 18 17 16 15 13 17 20 23 25 22 15 13 16 15 16 18 21 22 23 23 13 9 9 12 12 11 23 26 32 34 34
38 32 41 42 31 23 24 26 28 28 31 30 30 25 22 17 16 17 16 18 24 23 20 23 18 15 13 18 20 17 19 23 16 10 16 17 12 26 26 31 33 32 36 34 33
35 33 41 40 24 24 23 28 28 27 27 27 26 26 25 19 17 17 18 22 26 26 22 21 13 3 5 10 13 16 16 24 24 22 16 17 18 25 22 24 33 35 34 36 38
34 29 32 33 34 29 26 25 25 29 28 28 28 28 26 21 20 16 20 25 26 27 27 25 19 7 2 1 6 9 17 18 20 16 15 15 19 15 20 30 33 35 38 38 37
36 33 32 24 26 29 29 27 27 27 30 29 28 27 24 21 19 18 18 20 22 24 26 22 12 15 16 15 17 15 15 16 17 17 15 14 12 14 28 30 32 37 33 35 34
34 33 35 32 30 27 29 25 25 26 30 26 26 24 26 22 19 16 19 19 17 20 19 16 11 18 15 15 12 10 12 12 13 22 23 18 15 25 26 26 30 36 32 31 31
40 38 36 30 31 27 23 24 28 31 31 28 27 25 24 25 25 25 22 22 19 17 15 15 14 11 9 12 11 7 13 21 24 23 23 19 23 24 23 23 30 32 32 32 30

GFSSW_sfc_dewp_147.txt.gz
Dewpoint
61 61 62 62 62 62 62 62 62 61 60 60 59 57 56 54 53 46 42 43 45 51 52 48 50 49 47 44 51 45 42 37 38 36 33 31 29 31 32 31 31 26 39 47 58
62 62 63 63 62 62 62 62 62 62 62 61 60 59 57 54 46 41 47 50 52 54 50 48 46 48 44 43 48 48 42 37 38 39 35 34 31 32 31 30 31 32 44 54 61
63 63 63 62 62 62 62 62 62 62 62 62 61 60 57 47 38 38 46 52 53 47 41 42 43 46 43 42 46 44 41 39 39 40 40 39 37 36 33 32 33 32 40 56 61
63 63 63 62 62 62 62 62 62 62 62 62 62 61 54 41 40 38 51 55 50 38 34 35 45 43 40 40 40 42 43 43 43 43 43 40 39 38 37 35 35 35 44 56 59
62 62 62 62 61 60 61 61 61 61 61 61 61 59 47 39 41 42 48 45 35 33 33 33 36 45 41 39 38 40 41 41 43 45 44 44 43 41 41 41 41 39 45 54 59
62 61 61 59 59 58 58 58 58 60 60 60 60 55 43 39 41 39 37 40 37 33 31 31 31 33 32 33 36 38 39 39 39 40 41 44 43 42 42 43 40 40 38 49 57
59 59 58 58 58 57 56 57 57 58 59 58 58 50 43 42 40 42 41 41 39 38 34 32 31 30 30 32 34 35 36 36 37 38 40 41 40 42 42 41 40 38 36 47 51
58 58 57 57 57 57 56 56 56 57 58 58 58 47 41 43 43 42 41 39 38 36 35 35 32 30 29 29 30 33 37 33 33 35 37 40 36 38 42 43 42 39 36 39 50
57 57 57 57 57 57 56 55 55 55 54 50 45 42 40 41 37 37 40 38 36 32 34 32 33 31 31 30 30 32 30 29 30 37 34 37 35 37 40 39 41 41 35 35 46
57 57 57 57 56 57 55 53 50 48 47 44 44 39 39 36 41 39 31 25 21 27 34 35 36 31 31 30 22 22 27 26 27 32 36 37 34 34 34 38 37 37 36 35 37
56 56 56 56 56 54 52 49 44 41 42 40 38 36 37 40 41 40 38 29 23 18 26 28 26 28 30 31 29 28 26 26 27 28 29 35 35 38 39 39 36 38 36 35 35
55 56 56 56 52 48 47 44 38 39 37 37 36 38 38 36 35 35 36 29 21 22 19 16 17 21 24 32 31 29 27 27 27 27 29 31 29 30 34 39 38 35 36 36 35
55 56 56 53 47 43 40 39 40 41 37 36 35 34 34 35 33 30 19 20 19 18 16 13 15 15 19 21 22 29 29 28 26 24 22 26 26 26 27 30 35 36 34 34 36
54 55 54 49 44 42 40 40 42 42 31 26 22 27 29 31 25 27 21 25 26 21 20 12 13 14 15 15 15 16 18 18 18 24 22 28 19 20 23 23 28 30 29 33 35
50 49 48 48 41 41 41 42 41 39 9 23 23 26 30 27 28 20 26 27 24 18 20 16 16 12 12 13 17 16 20 13 15 17 22 21 23 23 23 21 22 29 30 32 34
48 48 47 43 43 41 43 41 38 20 7 22 27 28 28 28 27 21 23 28 26 23 22 19 19 14 13 16 17 17 16 20 21 19 15 14 18 18 18 23 23 23 27 31 33
46 46 44 43 38 42 42 37 20 12 25 24 22 25 26 21 14 11 15 15 14 10 12 14 11 11 17 13 17 17 17 4 4 11 5 17 15 15 15 16 19 21 22 29 34
44 43 43 42 42 42 38 25 10 19 24 29 29 28 25 19 15 15 14 11 14 14 12 7 4 12 18 15 14 14 17 6 -0 -1 9 11 11 16 19 19 19 20 23 24 27
43 40 39 40 43 43 30 15 16 21 28 28 27 23 16 19 19 15 15 14 17 20 10 7 12 18 19 18 16 12 18 20 12 14 12 13 13 11 8 5 6 18 16 23 23
39 39 37 43 43 36 24 22 24 29 29 28 22 24 19 15 14 12 13 14 20 25 24 19 7 15 19 17 19 16 20 9 13 -1 7 11 11 9 10 11 20 32 33 32 31
41 36 39 43 42 30 17 19 26 30 29 26 24 23 23 17 16 14 14 15 20 23 24 20 14 12 15 14 14 15 18 16 16 13 11 11 9 20 22 27 30 33 35 35 34
40 32 42 42 31 28 25 25 29 29 31 30 29 26 22 19 17 17 17 18 23 22 19 21 14 12 12 16 19 16 10 12 15 3 10 13 11 23 17 20 30 32 36 38 36
36 34 41 40 23 24 26 26 29 27 28 28 25 27 26 22 18 18 18 20 26 23 19 21 10 1 5 8 12 13 18 17 19 20 12 11 13 19 18 27 28 29 35 33 32
33 30 33 34 34 29 26 23 24 29 28 28 28 28 26 25 23 17 19 24 26 26 27 25 18 8 3 -1 2 4 5 17 16 13 10 12 11 12 23 25 24 26 33 32 32
36 31 28 20 26 29 30 24 25 26 30 30 28 27 26 22 21 19 20 20 22 25 25 25 17 15 15 15 14 15 11 12 12 15 14 11 11 17 24 23 23 30 30 30 30
31 33 35 33 29 27 26 25 24 24 29 26 27 24 27 24 21 17 20 19 18 20 24 18 17 17 15 15 15 15 14 12 13 13 13 22 20 22 22 22 24 30 28 30 30
38 38 35 31 31 27 22 23 23 28 29 29 27 28 27 26 26 24 22 22 22 16 16 15 16 12 8 12 10 4 9 16 23 25 23 17 21 24 21 22 30 28 28 31 32